Regional Weather Roundup
Issued by NWS

Home | Current Version | Previous Version | Graphics & Text | Print | Product List | Glossary On
Versions: 1 2 3 4 5 6 7 8 9 10 11 12 13 14 15 16 17 18 19 20 21 22 23 24 25 26 27 28 29 30 31 32 33 34 35 36 37 38 39 40 41 42 43 44 45 46 47 48 49 50
000
ASUS43 KDMX 250008
RWRIA

WEATHER ROUNDUP FOR IOWA
NATIONAL WEATHER SERVICE DES MOINES IA
700 PM CDT TUE MAY 24 2016

NOTE: "FAIR" INDICATES FEW OR NO CLOUDS BELOW 12,000 FEET WITH NO
SIGNIFICANT WEATHER AND/OR OBSTRUCTIONS TO VISIBILITY.

* - THESE STATIONS ARE NOT NWS STATIONS...THUS NOT UNDER NWS
QUALITY CONTROL.  THEY ALSO DO NOT REPORT WEATHER SUCH
AS PRECIPITATION OR FOG.

IAZ001>003-012>014-020>022-031>034-043>046-250100-
   NORTHWEST IOWA

CITY           SKY/WX    TMP DP  RH WIND       PRES   REMARKS
CARROLL *      SUNNY     79  66  65 SE7       29.88F HX  81
CHEROKEE *     MOSUNNY   81  62  52 SE3       29.86F HX  82
DENISON *      SUNNY     79  63  57 SE7       29.86S HX  80
LE MARS *      SUNNY     81  63  54 SE7       29.86S HX  82
ORANGE CITY *  SUNNY     81  61  50 SE6       29.87S HX  81
SHELDON *      SUNNY     82  57  42 S6        29.86S HX  82
SIOUX CITY     SUNNY     81  66  60 SE10      29.84F HX  83
6HR MIN TEMP:  77; 6HR MAX TEMP:  83;

SPENCER        SUNNY     82  53  36 SE5       29.87F HX  81
6HR MIN TEMP:  74; 6HR MAX TEMP:  83;

STORM LAKE *   SUNNY     81  61  50 SE10      29.89S HX  81
$$

IAZ055>058-069>071-079>083-090>094-250100-
   SOUTHWEST IOWA

CITY           SKY/WX    TMP DP  RH WIND       PRES   REMARKS
ATLANTIC *     SUNNY     81  57  44 S7        29.88S HX  81
AUDUBON *        N/A     81  63  54 S6        29.89F HX  82
CLARINDA *       N/A     81  64  57 MISG      29.90R HX  82
COUNCIL BLFS * SUNNY     79  61  53 S6        29.87S HX  80
CRESTON *      SUNNY     79  61  53 S10       29.92R HX  80
HARLAN  *        N/A    N/A N/A N/A MISG        N/A
LAMONI         SUNNY     78  60  53 SE9       29.92R
6HR MIN TEMP:  74; 6HR MAX TEMP:  81;

RED OAK *      SUNNY     82  59  44 S7        29.88S HX  82
SHENANDOAH *   SUNNY     82  61  47 SE6       29.88R HX  83
$$

IAZ047>049-059>061-072>074-084-250100-
   CENTRAL IOWA

CITY           SKY/WX    TMP DP  RH WIND       PRES   REMARKS
AMES           SUNNY     80  62  54 W5        29.89S HX  81
6HR MIN TEMP:  73; 6HR MAX TEMP:  81;

ANKENY *       SUNNY     82  63  51 S5        29.88S HX  83
BOONE *        SUNNY     79  63  57 CALM      29.89S HX  80
CHARITON *     SUNNY     81  63  54 S10       29.92R HX  82
DES MOINES     MOSUNNY   82  58  43 S8        29.89R HX  82
6HR MIN TEMP:  74; 6HR MAX TEMP:  84;

GRINNELL*      SUNNY     82  55  39 SW6       29.91R HX  82
KNOXVILLE *    SUNNY     82  59  44 S9        29.89R HX  82
MARSHALLTOWN   SUNNY     82  60  47 CALM      29.88S HX  82
6HR MIN TEMP:  75; 6HR MAX TEMP:  83;

NEWTON *       MOSUNNY   82  59  44 S10       29.89R HX  82
PERRY *          N/A     81  64  57 SE5       29.88F HX  82
$$

IAZ004>006-015-016-023>025-035-036-250100-
   NORTH CENTRAL IOWA

CITY           SKY/WX    TMP DP  RH WIND       PRES   REMARKS
ALGONA *       SUNNY     81  61  50 SE10      29.89S HX  81
CLARION *      SUNNY     79  64  61 CALM      29.90R HX  81
ESTHERVILLE    MOSUNNY   81  54  39 S7        29.87F HX  81
6HR MIN TEMP:  74; 6HR MAX TEMP:  82;

FORT DODGE *   SUNNY     79  61  53 SE6       29.91S HX  80
MASON CITY     SUNNY     79  64  60 CALM      29.91F HAZE    HX  81
6HR MIN TEMP:  73; 6HR MAX TEMP:  80;

FOREST CITY *  SUNNY     77  61  57 SE3       29.90S
WEBSTER CITY * MOSUNNY   81  64  57 VRB3      29.87F HX  82
IOWA FALLS *     N/A     82  61  47 S5        29.90S HX  83
$$

IAZ007>011-017>019-026>030-037>042-050>054-066-250100-
   NORTHEAST IOWA

CITY           SKY/WX    TMP DP  RH WIND       PRES   REMARKS
CEDAR RAPIDS   MOSUNNY   82  64  54 S10       29.89R HX  83
6HR MIN TEMP:  77; 6HR MAX TEMP:  84;

CHARLES CITY * SUNNY     82  55  39 CALM      29.90S HX  82
CLINTON *      MOSUNNY   83  59  44 SW9       29.91R HX  83
DECORAH *      SUNNY     81  57  44 CALM      29.90S HX  81
DUBUQUE        CLOUDY    81  62  52 CALM      29.92R HX  82
6HR MIN TEMP:  70; 6HR MAX TEMP:  83; 6HR PCP:  0.07;

MONTICELLO *   SUNNY     82  61  47 W6        29.90R HX  83
OELWEIN *      SUNNY     82  59  44 SW5       29.90S HX  82
WATERLOO       SUNNY     83  58  42 CALM      29.88S HX  83
6HR MIN TEMP:  78; 6HR MAX TEMP:  84;

$$

IAZ064-065-067-068-078-250100-
   EAST CENTRAL IOWA

CITY           SKY/WX    TMP DP  RH WIND       PRES   REMARKS
DAVENPORT      MOSUNNY   84  57  39 S10       29.91R HX  83
6HR MIN TEMP:  83; 6HR MAX TEMP:  88;

IOWA CITY      MOSUNNY   83  55  38 SW6       29.91R HX  82
6HR MIN TEMP:  80; 6HR MAX TEMP:  84;

MT. PLEASANT * MOSUNNY   83  65  56 S10       29.92R HX  84
MUSCATINE *    SUNNY     82  63  51 SW7       29.91R HX  83
QUAD CITIES    CLOUDY    84  59  42 SW8       29.90R HX  84
6HR MIN TEMP:  84; 6HR MAX TEMP:  88;

$$

IAZ062-063-075>077-085>089-095>099-250100-
   SOUTHEAST IOWA

CITY           SKY/WX    TMP DP  RH WIND       PRES   REMARKS
BURLINGTON     MOSUNNY   80  63  55 SW10      29.92R HX  81
6HR MIN TEMP:  78; 6HR MAX TEMP:  85;

FAIRFIELD *      N/A    N/A N/A N/A MISG        N/A
FORT MADISON * SUNNY     79  64  61 S9        29.94S HX  81
KEOKUK *       SUNNY     77  64  65 SW10      29.93R
OSKALOOSA *      N/A     81  63  54 S12       29.92R HX  82
OTTUMWA        MOSUNNY   80  64  58 S10       29.91R HX  82
6HR MIN TEMP:  80; 6HR MAX TEMP:  83;

WASHINGTON *   SUNNY     82  66  57 SW13      29.92R HX  85
$$

ABBREVIATIONS USED IN REMARKS
   TC - TEMPERATURES IN CELSIUS
  WCI - WIND CHILL INDEX
   HX - HEAT INDEX
  VSB - VISIBILITY
$$




USA.gov is the U.S. government's official web portal to all federal, state and local government web resources and services.